Погода в Гостивице

Чехия     50°04′52″N   14°15′28″E
темп.,
°C
ветер,
м/с
пор.,
м/с
влажн.,
%
обл.,
%
осадки,
мм/ч
давл.,
гПа
погр.,
м
6 мая, чт
чт623:00+5з7147136 0.0 1011759
02:00+3зюз613815 0.0 1011567
05:00+3юз5128472 0.0 1012504
08:00+5зюз71177100 0.0 1012863
11:00+8зюз8136297 0.1 10111572
14:00+10зюз61054100 0.2 10101891
17:00+11зюз5857100 0.4 10071581
20:00+8юз3774100 0.4 1006308
7 мая, пт
пт723:00+6юз31095100 2.5 1006731
02:00+8ююз71690100 3.9 10031338
05:00+8зюз8178589 0.4 10041271
08:00+7з8138022 0.4 10071183
11:00+7з7116389 0.1 10101611
14:00+10зсз81149100 0.4 10102168
17:00+9зсз8125591 0.5 10122059
20:00+6зсз51066100 0.8 1015648
8 мая, сб
сб823:00+2з48805 0.0 1019209
02:00+1зюз37850 0.0 1020121
05:00+1зюз39855 0.0 1021170
08:00+6зюз48685 0.0 1021367
11:00+11з465071 0.0 10212020
14:00+13з354289 0.1 10192115
17:00+14зюз344074 0.0 10182177
20:00+10ююз2259100 0.0 101817
9 мая, вс
вс923:00+7ююв2260100 0.0 101820
02:00+5ю237389 0.0 101837
05:00+4ю2277100 0.0 101724
08:00+9ююв236510 0.0 1016186
11:00+17ююв455216 0.0 1014696
14:00+21юв56485 0.0 10131230
17:00+20юв675734 0.0 1012963
20:00+14юв5117199 0.0 1011377
10 мая, пн
пн1023:00+10вюв378271 0.0 1012170
02:00+8в238728 0.0 101260
05:00+7вюв228932 0.0 101128
08:00+10юв357933 0.0 1011338
11:00+17ююв45621 0.0 1009762
14:00+22юв56550 0.0 10071051
17:00+22юв56605 0.0 1006982
20:00+17вюв34810 0.0 100584